Flag for Trinidad and Tobago Weather past 2 weeks in San Fernando, Trinidad and Tobago

Now
79 °F

Passing clouds.


Feels Like: 82 °F
Forecast: 78 / 89 °F
Wind: No wind

Location: Piarco International Airport - Trinidad

Current Time: Apr 28, 2015 at 8:53:08 AM

Latest Report: Apr 28, 2015 at 7:00 AM


Visibility: 2 mi

Pressure: 29.95 "Hg

Humidity: 84%

Dew point: 73 °F

Location of San FernandoLocation

Historic Weather in San Fernando — Graph

°F

San Fernando temperature yesterday

Maximum temperature yesterday: 91 °F (at 11:00 AM)
Minimum temperature yesterday: 77 °F (at 5:00 AM)
Average temperature yesterday: 83 °F

Past Weeks' High & Low Weather Summary

 TemperatureHumidityPressure
High91 °F (Apr 22, 12:00 PM)100% (Apr 19, 9:00 PM)30.04 "Hg (Apr 19, 9:00 PM)
Low72 °F (Apr 19, 9:00 PM)44% (Apr 27, 2:00 PM)29.86 "Hg (Apr 16, 5:00 PM)
Average81 °F76%29.93 "Hg
* Reported Apr 13 6:00 PM — Apr 28 7:00 AM, San Fernando, Weather by CustomWeather, © 2015

Note: Actual official high and low records may vary slightly from our data, if they occured in-between our weather recording intervals... More about our weather records

Advertising

San Fernando weather history for previous 24 hours

 ConditionsComfort  
Time TempWeatherWind HumidityBarometerVisibility
7:00 AM
Tue, Apr 28
79 °FPassing clouds.No wind84%29.95 "Hg2 mi
6:00 AM75 °FPassing clouds.No wind94%29.92 "Hg4 mi
5:00 AM75 °FPassing clouds.No wind94%29.89 "Hg4 mi
4:00 AM75 °FPassing clouds.No wind94%29.89 "Hg5 mi
3:00 AM75 °FPassing clouds.No wind94%29.86 "Hg5 mi
2:00 AM77 °FPassing clouds.No wind89%29.89 "Hg5 mi
1:00 AM77 °FPassing clouds.No wind89%29.89 "Hg5 mi
12:00 AM77 °FPassing clouds.No wind89%29.92 "Hg5 mi
11:00 PM
Mon, Apr 27
77 °FPassing clouds.No wind89%29.92 "Hg5 mi
10:00 PM79 °FPassing clouds.No wind84%29.92 "Hg5 mi
9:00 PM79 °FPassing clouds.3 mph84%29.92 "Hg5 mi
8:00 PM81 °FPassing clouds.No wind79%29.92 "Hg5 mi
7:00 PM81 °FPassing clouds.12 mph79%29.89 "Hg5 mi
6:00 PM82 °FPassing clouds.12 mph70%29.86 "Hg5 mi
5:00 PM86 °FPassing clouds.15 mph59%29.86 "Hg5 mi
4:00 PM88 °FPassing clouds.15 mph52%29.86 "Hg5 mi
3:00 PM90 °FPassing clouds.15 mph49%29.86 "Hg5 mi
2:00 PM91 °FPassing clouds.16 mph44%29.89 "Hg5 mi
1:00 PM91 °FScattered clouds.15 mph49%29.89 "Hg6 mi
12:00 PM91 °FPassing clouds.16 mph49%29.92 "Hg6 mi
11:00 AM91 °FScattered clouds.16 mph49%29.95 "Hg6 mi
10:00 AM88 °FScattered clouds.15 mph55%29.98 "HgN/A
8:00 AM84 °FPassing clouds.13 mph70%29.95 "Hg4 mi
Weather by CustomWeather, © 2015

See weather overviewHow to use our weather pages